sat.trackr.live / text

‹ back to catalog

MANDRAKE 2 BAKER

NORAD 48908 · 2021-059AF

PAYLOAD ACTIVE UNKNOWN

§ Identity

Operator
Country
US
Launch date
2021-06-30
Launch site
AFETR
Launch vehicle
Mass (kg)
RCS (m²)

External: N2YO · Heavens-Above · Gunter

§ Orbital elements

Epoch: 2026-09-12T12:01:19.266816Z

Period
92.07 min
Inclination
97.6936°
Eccentricity
0.0003757
Mean motion
15.63994011 rev/d
Perigee alt
373.6 km
Apogee alt
378.7 km
Semi-major
6,754.3 km
B*
2.7724e-4
RAAN
95.7119°
Arg perigee
43.1479°
Mean anomaly
317.0073°
Rev number
29,092

§ Raw data

MANDRAKE 2 BAKER1 48908U 21059AF  26255.50091744  .00026051  00000+0  27724-3 0  99942 48908  97.6936  95.7119 0003757  43.1479 317.0073 15.63994011290925

JSON: /api/v1/satellites/48908 · /tle

For live sub-satellite position, see the globe view (requires WebGL).

§ Visibility from observer

Set your observer location to see the next 7 days of passes ≥ 10°. The values pass through the URL so the page stays shareable.

No JS? Fill the form by hand. The geolocation button needs JavaScript.

§ Radio — SatNOGS DB

ModeDescriptionDownlinkUplink
FSK Mode U - Downlink 400.498 MHz

1 transmitter · refreshed weekly from db.satnogs.org